Location: Shepherdstown, WV
(39.4326°N, 77.8042°W)
Time: 20:29:45
(UTC-04:00)

Vanguard 1 Rocket - Pass Details

Date: 06 August 2021
Orbit: 650 x 4226 km, 34.3° (Epoch: 19 September)

Event Time Altitude Azimuth Distance (km) Brightness Sun altitude
Rises 13:30:30 0° 273° (W) 7,608 12.1 66.9°
Reaches altitude 10° 13:36:25 10° 272° (W) 6,086 11.8 66.7°
Maximum altitude 13:52:41 63° 197° (SSW) 2,065 12.7 65.8°
Drops below altitude 10° 14:00:49 10° 118° (ESE) 3,217 10.4 65.1°
Sets 14:02:59 0° 114° (ESE) 3,909 10.6 65.0°
